EW6254 Weather Reports


Display with metric or nautical units.
time (UTC)temp
F
wind
direction
speed
MPH
gust
MPH
rain 1hr
in
rain 24hr
in
rain mn
in
humidity
%
barometer
mb
20181018201151 70 128 8.0 18.0 0.00 0.00 0.00 39 1024.8
20181018200122 70 208 7.0 21.0 0.00 0.00 0.00 41 1025.0
20181018195100 69 207 9.0 21.0 0.00 0.00 0.00 40 1025.2
20181018194024 70 236 7.0 18.0 0.00 0.00 0.00 39 1025.3
20181018193001 70 156 6.0 15.0 0.00 0.00 0.00 41 1025.4
20181018192002 70 233 5.0 14.0 0.00 0.00 0.00 39 1025.8
20181018191003 70 189 6.0 17.0 0.00 0.00 0.00 41 1025.9
20181018190002 69 209 6.0 17.0 0.00 0.00 0.00 42 1026.2
20181018185016 69 232 6.0 14.0 0.00 0.00 0.00 41 1026.3
20181018184028 69 200 5.0 12.0 0.00 0.00 0.00 42 1026.7
20181018183025 68 112 4.0 11.0 0.00 0.00 0.00 43 1026.9
20181018181952 68 202 5.0 16.0 0.00 0.00 0.00 44 1027.3
20181018180920 67 229 6.0 16.0 0.00 0.00 0.00 45 1027.6
20181018175925 67 196 4.0 12.0 0.00 0.00 0.00 45 1027.7
20181018174934 67 190 4.0 11.0 0.00 0.00 0.00 47 1028.1
20181018173900 67 193 4.0 11.0 0.00 0.00 0.00 47 1028.3
20181018172832 66 180 4.0 10.0 0.00 0.00 0.00 50 1028.6
20181018171824 65 236 3.0 10.0 0.00 0.00 0.00 52 1028.7
20181018170802 64 214 3.0 7.0 0.00 0.00 0.00 56 1029.0
20181018165756 62 207 3.0 7.0 0.00 0.00 0.00 57 1029.2
20181018164727 62 190 2.0 9.0 0.00 0.00 0.00 60 1029.5
20181018163741 60 228 3.0 9.0 0.00 0.00 0.00 60 1029.6
20181018162732 60 267 3.0 6.0 0.00 0.00 0.00 60 1029.7
20181018161719 59 196 2.0 9.0 0.00 0.00 0.00 61 1029.7
20181018160734 58 263 3.0 9.0 0.00 0.00 0.00 62 1029.8
20181018155718 57 0 3.0 8.0 0.00 0.00 0.00 64 1029.8
20181018154642 56 0 2.0 6.0 0.00 0.00 0.00 66 1029.9
20181018153647 55 0 1.0 4.0 0.00 0.00 0.00 69 1030.1
20181018152622 53 0 1.0 4.0 0.00 0.00 0.00 73 1030.2
20181018151616 52 0 1.0 4.0 0.00 0.00 0.00 75 1030.2
20181018150555 51 0 1.0 6.0 0.00 0.00 0.00 77 1030.4
20181018145547 49 150 2.0 6.0 0.00 0.00 0.00 79 1030.5
20181018144530 48 0 2.0 8.0 0.00 0.00 0.00 79 1030.6
20181018143515 48 152 2.0 8.0 0.00 0.00 0.00 79 1030.6
20181018142457 47 0 1.0 6.0 0.00 0.00 0.00 80 1030.6
20181018141439 47 165 1.0 7.0 0.00 0.00 0.00 82 1030.3
20181018140434 46 180 2.0 7.0 0.00 0.00 0.00 82 1030.5
20181018135449 46 0 1.0 3.0 0.00 0.00 0.00 84 1030.6
20181018134447 45 0 0.0 3.0 0.00 0.00 0.00 84 1030.4
20181018133427 44 0 0.0 3.0 0.00 0.00 0.00 84 1030.4
20181018132405 44 0 0.0 2.0 0.00 0.00 0.00 85 1030.3
20181018131420 44 0 0.0 3.0 0.00 0.00 0.00 85 1030.4
20181018130406 44 146 1.0 5.0 0.00 0.00 0.00 84 1030.3
20181018125428 44 0 2.0 5.0 0.00 0.00 0.00 84 1030.3
20181018124409 44 150 2.0 4.0 0.00 0.00 0.00 84 1030.2
20181018123346 44 150 1.0 4.0 0.00 0.00 0.00 83 1030.3
20181018122317 44 137 1.0 3.0 0.00 0.00 0.00 83 1030.3
20181018121240 44 159 1.0 3.0 0.00 0.00 0.00 82 1030.2
20181018120229 45 147 1.0 4.0 0.00 0.00 0.00 82 1030.2
20181018115247 45 149 2.0 4.0 0.00 0.00 0.00 82 1030.2
20181018114213 45 159 1.0 4.0 0.00 0.00 0.00 81 1030.2
20181018113222 45 143 2.0 4.0 0.00 0.00 0.00 81 1030.2
20181018112244 45 137 2.0 4.0 0.00 0.00 0.00 80 1030.2
20181018111243 46 143 3.0 4.0 0.00 0.00 0.00 80 1030.0
20181018110259 46 135 2.0 4.0 0.00 0.00 0.00 80 1029.9
20181018105306 46 136 2.0 5.0 0.00 0.00 0.00 80 1029.8
20181018104254 46 141 2.0 5.0 0.00 0.00 0.00 80 1029.8
20181018103242 46 139 3.0 5.0 0.00 0.00 0.00 80 1029.8
20181018102302 46 143 3.0 5.0 0.00 0.00 0.00 80 1029.8
20181018101310 46 146 3.0 4.0 0.00 0.00 0.00 79 1029.8
20181018100131 46 144 2.0 4.0 0.00 0.00 0.00 79 1029.8
20181018095106 46 143 2.0 4.0 0.00 0.00 0.00 79 1029.7
20181018094047 46 139 2.0 5.0 0.00 0.00 0.00 79 1029.7
20181018093056 46 136 3.0 5.0 0.00 0.00 0.00 79 1029.7
20181018092031 46 136 2.0 4.0 0.00 0.00 0.00 79 1029.7
20181018091053 46 140 2.0 3.0 0.00 0.00 0.00 79 1029.8
20181018090038 46 152 1.0 4.0 0.00 0.00 0.00 79 1029.8
20181018085053 46 147 2.0 4.0 0.00 0.00 0.00 79 1029.9
20181018084045 47 153 2.0 5.0 0.00 0.00 0.00 79 1029.9
20181018083103 47 149 3.0 5.0 0.00 0.00 0.00 79 1030.1
20181018082041 47 138 2.0 5.0 0.00 0.00 0.00 79 1030.1
20181018081050 47 153 2.0 5.0 0.00 0.00 0.00 79 1030.1
20181018080102 47 142 2.0 5.0 0.00 0.00 0.00 79 1030.2
20181018075100 46 145 2.0 3.0 0.00 0.00 0.00 79 1030.2
20181018074048 46 150 1.0 3.0 0.00 0.00 0.00 79 1030.2
20181018073109 47 154 1.0 2.0 0.00 0.00 0.00 79 1030.2
20181018072125 47 157 1.0 2.0 0.00 0.00 0.00 78 1030.3
20181018071140 47 158 1.0 3.0 0.00 0.00 0.00 78 1030.4
20181018070109 47 155 1.0 4.0 0.00 0.00 0.00 77 1030.4
20181018065105 48 148 1.0 4.0 0.00 0.00 0.00 77 1030.4
20181018064032 48 150 1.0 3.0 0.00 0.00 0.00 77 1030.3
20181018063023 48 144 1.0 3.0 0.00 0.00 0.00 76 1030.2
20181018062045 48 0 1.0 2.0 0.00 0.00 0.00 76 1030.3
20181018061050 48 0 1.0 3.0 0.00 0.00 0.00 75 1030.2
20181018060018 49 0 1.0 3.0 0.00 0.00 0.00 74 1030.2
20181018055006 49 0 1.0 2.0 0.00 0.00 0.00 73 1030.3
20181018054010 49 0 0.0 2.0 0.00 0.00 0.00 72 1030.3
20181018052958 50 0 1.0 3.0 0.00 0.00 0.00 70 1030.3
20181018051954 50 0 1.0 3.0 0.00 0.00 0.00 69 1030.3
20181018050926 51 0 1.0 4.0 0.00 0.00 0.00 67 1030.3
20181018045915 51 0 3.0 4.0 0.00 0.00 0.00 67 1030.3
20181018044934 51 147 2.0 4.0 0.00 0.00 0.00 66 1030.3
20181018043905 52 0 2.0 4.0 0.00 0.00 0.00 66 1030.4
20181018042831 52 0 2.0 4.0 0.00 0.00 0.00 66 1030.3
20181018041801 52 0 0.0 4.0 0.00 0.00 0.00 65 1030.4
20181018040744 53 145 2.0 4.0 0.00 0.00 0.00 63 1030.5
20181018035735 53 145 2.0 3.0 0.00 0.00 0.00 63 1030.5
20181018034750 53 146 1.0 3.0 0.00 0.00 0.00 62 1030.4
20181018033715 53 0 1.0 2.0 0.00 0.00 0.00 62 1030.5
20181018032649 54 0 1.0 3.0 0.00 0.00 0.00 61 1030.4
20181018031653 54 0 1.0 3.0 0.00 0.00 0.00 61 1030.5
20181018030626 54 0 0.0 3.0 0.00 0.00 0.00 61 1030.5
20181018025638 54 0 1.0 3.0 0.00 0.00 0.00 60 1030.4
20181018024700 54 0 1.0 3.0 0.00 0.00 0.00 60 1030.3
20181018023716 55 0 1.0 3.0 0.00 0.00 0.00 60 1030.2
20181018022722 55 0 2.0 3.0 0.00 0.00 0.00 59 1030.1
20181018021701 55 0 2.0 4.0 0.00 0.00 0.00 59 1030.1
20181018020634 55 0 2.0 4.0 0.00 0.00 0.00 59 1030.1
20181018015629 55 0 2.0 5.0 0.00 0.00 0.00 59 1030.0
20181018014613 55 0 2.0 5.0 0.00 0.00 0.00 59 1029.9
20181018013557 56 0 3.0 5.0 0.00 0.00 0.00 58 1029.9
20181018012530 56 0 2.0 4.0 0.00 0.00 0.00 58 1029.9
20181018011535 56 0 1.0 4.0 0.00 0.00 0.00 57 1029.9
20181018010506 57 0 1.0 5.0 0.00 0.00 0.00 56 1029.7
20181018005520 57 0 2.0 5.0 0.00 0.00 0.00 56 1029.8
20181018004456 57 0 2.0 4.0 0.00 0.00 0.00 55 1029.8
20181018003503 57 0 2.0 5.0 0.00 0.00 0.00 55 1029.8
20181018002520 58 0 1.0 5.0 0.00 0.00 0.00 54 1029.8
20181018001447 58 0 2.0 4.0 0.00 0.00 0.00 54 1029.7
20181018000503 58 0 2.0 3.0 0.00 0.00 0.00 53 1029.7
20181017235507 59 0 2.0 3.0 0.00 0.00 0.00 52 1029.7
20181017234506 59 0 2.0 5.0 0.00 0.00 0.00 51 1029.7
20181017233447 60 0 2.0 4.0 0.00 0.00 0.00 50 1029.6
20181017232441 60 0 1.0 5.0 0.00 0.00 0.00 49 1029.5
20181017231458 60 0 3.0 5.0 0.00 0.00 0.00 48 1029.7
20181017230510 61 0 2.0 6.0 0.00 0.00 0.00 47 1029.5
20181017225445 61 105 2.0 6.0 0.00 0.00 0.00 47 1029.5
20181017224506 62 81 2.0 5.0 0.00 0.00 0.00 47 1029.6
20181017223503 62 94 1.0 7.0 0.00 0.00 0.00 46 1029.6
20181017222454 62 0 3.0 7.0 0.00 0.00 0.00 46 1029.6
20181017221428 63 75 1.0 3.0 0.00 0.00 0.00 46 1029.5
20181017220434 63 48 1.0 3.0 0.00 0.00 0.00 45 1029.6
20181017215415 62 157 0.0 0.0 0.00 0.00 0.00 46 1029.6
20181017214400 63 150 2.0 6.0 0.00 0.00 0.00 45 1029.6
20181017213335 63 88 1.0 6.0 0.00 0.00 0.00 46 1029.6
20181017212323 63 236 1.0 4.0 0.00 0.00 0.00 44 1029.6
20181017211329 63 217 1.0 4.0 0.00 0.00 0.00 45 1029.6
20181017210314 62 319 1.0 5.0 0.00 0.00 0.00 46 1029.6
20181017205306 63 346 1.0 6.0 0.00 0.00 0.00 45 1029.7
20181017204250 62 0 2.0 6.0 0.00 0.00 0.00 46 1029.6
20181017203243 62 308 1.0 4.0 0.00 0.00 0.00 46 1029.5
20181017202256 62 219 1.0 4.0 0.00 0.00 0.00 46 1029.6